Погода в Хачемзии

Россия / Республика Адыгея     44°57′11″N   40°18′52″E
темп.,
°C
ветер,
м/с
пор.,
м/с
влажн.,
%
обл.,
%
осадки,
мм/ч
давл.,
гПа
погр.,
м
20 сентября, пн
пн2000:00+17ю228811 0.2 101341
03:00+16ю1188100 0.2 101313
06:00+15ю23896 0.0 101333
09:00+20юз511658 0.2 1013938
12:00+26зюз913393 0.2 10132506
15:00+25зюз811375 0.2 10132256
18:00+22зюз5104752 0.0 1014325
21:00+18зюз396415 0.0 1015200
21 сентября, вт
вт2100:00+16ю23776 0.0 101539
03:00+16ююв227969 0.0 101413
06:00+15ююв227813 0.0 101420
09:00+20всв1160100 0.0 1014352
12:00+20сз5466100 0.1 1014804
15:00+16с4491100 2.9 1014278
18:00+15сз4595100 6.5 1015366
21:00+15зсз249195 6.9 1016334
22 сентября, ср
ср2200:00+14з2490100 0.0 1015277
03:00+14зсз2584100 0.1 1015288
06:00+13зсз3585100 0.0 1016350
09:00+13сз346977 0.0 1016597
12:00+15зсз345993 0.0 10161195
15:00+16зсз4454100 0.0 10151505
18:00+14сз1257100 0.0 1016109
21:00+14ссв115959 0.0 101650
23 сентября, чт
чт2300:00+13в116190 0.0 101550
03:00+13всв2365100 0.0 1014132
06:00+13всв366799 0.0 1013333
09:00+13в4769100 0.0 1013503
12:00+13всв4683100 1.0 1012511
15:00+13св5783100 1.5 1011402
18:00+12ссв6983100 0.1 1011371
21:00+11св5988100 0.9 1011382
24 сентября, пт
пт2400:00+10св3594100 1.4 1011284
03:00+11ссв3493100 2.2 1011271
06:00+10с2492100 0.0 1012261
09:00+11ссв1287100 0.0 1014328
12:00+13сз1278100 0.0 1014607
15:00+15зюз126893 0.1 1015763
18:00+14ююз3473100 0.1 1016112
21:00+13юз237547 0.1 101766